Aérodrome :
LOGIN :

S'inscrire | Disclaimer

   EN    FR    IT 

 










Légende :    VFR   VFR Marginal   IFR   IFR Intensif   IFR Très Intensif
Visi : 
Plafond : 
>= 8 km
>= 3000ft
5 à 8 km
1000 à 3000 ft
1500m à 5 km
500 à 1000 ft
800 à 1500m
200 à 500 ft
< 800m
< 200 ft
Symboles :   Orages  Brouillard  Fortes neiges  Fortes précipitations  Vent > 20 kt
SIGMETs :   Divers  Orages  Givrage  Turbulence  Onde Orograph.  Cendres Volcan.







- Altitude de l'aérodrome : 82 ft
- Code IATA : QIE
- Voir les cartes d'approche


LFMI - Istres

DERNIER METAR :
  • 211200Z AUTO 26010KT 230V290 CAVOK 32/15 Q1016 NOSIG

METARs EXPIRÉS :
  • 211130Z AUTO 25009KT 210V290 CAVOK 32/17 Q1016 NOSIG
  • 211100Z AUTO 25008KT 210V280 CAVOK 32/16 Q1016 NOSIG
  • 211030Z AUTO VRB07KT CAVOK 32/15 Q1016 NOSIG
  • 211000Z AUTO 24007KT 200V330 CAVOK 31/14 Q1016 NOSIG
  • 210930Z AUTO VRB05KT CAVOK 31/15 Q1016 NOSIG

TAF TAF LFMI
Valide du 21 à 09h jusqu'au 22 à 09h UTC


210800Z 2109/2209 VRB03KT CAVOK
BECMG 2110/2112 27010KT
TEMPO 2114/2117 23013KT
BECMG 2118/2120 VRB04KT
BECMG 2122/2124 34017KT
BECMG 2202/2204 35025KT
TEMPO 2206/2209 34027G37KT
Pas de NOTAMs connus pour ce terrain.



MET'MAP, la Météo Aéronautique d'un coup d'oeil ! - Copyright ORBIFLY Décembre 2007 - Disclaimer

ORBIFLY MET'MAP TEAM :

Programmation & Développement : Alexandra Zaïnal
Conception & Développement : Baudouin d'Aumeries
Co-Programmation & Développement : Marc-Olivier Méhu
Soutien technique & logistique : Manuel Goepfert

Contact : metmap@orbifly.com




SOURCES & CREDITS :

   NOAA